Regional Weather Roundup
Issued by NWS

Home | Current Version | Previous Version | Graphics & Text | Print | Product List | Glossary On
Versions: 1 2 3 4 5 6 7 8 9 10 11 12 13 14 15 16 17 18 19 20 21 22 23 24 25 26 27 28 29 30 31 32 33 34 35 36 37 38 39 40 41 42 43 44 45 46 47 48 49 50
000
ASUS43 KMPX 251701
RWRMN
WEATHER ROUNDUP FOR MINNESOTA
NATIONAL WEATHER SERVICE TWIN CITIES/CHANHASSEN MN
1100 AM CST SUN JAN 25 2015


NOTE: "FAIR" INDICATES FEW OR NO CLOUDS BELOW 12,000 FEET WITH NO
SIGNIFICANT WEATHER AND/OR OBSTRUCTIONS TO VISIBILITY. N/A MEANS
CURRENT SKY AND/OR WEATHER CONDITIONS ARE NOT AVAILABLE.

MNZ060>063-068>070-251800-
   Twin Cities Metro

CITY           SKY/WX    TMP DP  RH WIND       PRES   REMARKS
TWIN CITIES    CLOUDY    22  12  65 NE13      30.04R WCI  10
ST PAUL        CLOUDY    21  11  65 NE14      30.06R WCI   8
CRYSTAL        CLOUDY    22  12  65 NE7       30.04R WCI  13
BLAINE         PTSUNNY   23  12  63 NE12G17   30.04R WCI  12
LAKEVILLE      CLOUDY    19  14  79 NE10      30.02R WCI   8
EDEN PRAIRIE   CLOUDY    22  12  65 NE10      30.03R WCI  11
SOUTH ST PAUL  CLOUDY    22  13  67 NE8       30.04R WCI  12
LAKE ELMO      CLOUDY    21  12  68 NE13      30.04R WCI   9
$$
MNZ001>005-007-008-013>017-022>024-027-028-251800-
   Northwest Minnesota

CITY           SKY/WX    TMP DP  RH WIND       PRES   REMARKS
BEMIDJI        CLOUDY    19  11  73 SE5       30.00R WCI  12
HALLOCK        SUNNY     14   7  73 SE3       30.05S
ROSEAU         PTSUNNY   12   5  73 CALM      30.04S
WARROAD        CLOUDY    10   1  67 E3        30.05R
THIEF RVR FALL CLOUDY    12   3  67 CALM      30.04S
CROOKSTON      SUNNY     18   9  68 CALM      30.06S
FOSSTON        MOSUNNY   25  18  74 CALM      30.02R
DETROIT LAKES  SUNNY     27  19  74 CALM      30.02R
MOORHEAD       SUNNY     21  18  86 N6        30.06R WCI  14
PARK RAPIDS    CLOUDY    23  15  71 SE7       29.99R WCI  15
MAHNOMEN       FAIR      20  15  81 SW3       30.01R
$$
MNZ006-009>011-018-025>026-251800-
   North Central Minnesota

CITY           SKY/WX    TMP DP  RH WIND       PRES   REMARKS
BAUDETTE       CLOUDY     8   1  73 VRB6      30.03R WCI  -2
FLAG ISLAND    CLOUDY     7   0  72 SE6       30.03S WCI  -3
INTL FALLS     CLOUDY     6  -2  69 E3        30.06R
WASKISH        CLOUDY    16   7  67 CALM      30.03S
BIG FORK       CLOUDY    16   7  67 E3        30.03R
LONGVILLE      CLOUDY    21  14  73 SE3       30.02R
GRAND RAPIDS   CLOUDY    19  10  68 SE3       30.02R
CRANE LAKE     PTSUNNY    5  -2  72 CALM      30.10S
ORR            CLOUDY    10   1  67 CALM      30.03R
COOK           PTSUNNY   10   1  67 CALM      30.05R
WALKER         CLOUDY    19  12  73 CALM      30.00R
$$
MNZ012-019>021-037-251800-
   Northeast Minnesota

CITY           SKY/WX    TMP DP  RH WIND       PRES   REMARKS
DULUTH         LGT SNOW  20  14  77 E14       30.02R WCI   7
ELY            FLURRIES   7   1  78 CALM      30.05F
HIBBING        CLOUDY    19  10  68 SE5       30.04R WCI  12
EVELETH        FLURRIES  18  10  73 SE5       30.05S WCI  11
DULUTH HARBOR  CLOUDY    25  18  74 E18       30.08R WCI  11
TWO HARBORS    LGT SNOW  21  14  73 NE10      30.05R WCI  10
SILVER BAY     LGT SNOW  18  12  79 N6        30.07R WCI   9
GRAND MARAIS     N/A     12   1  61 E7        30.16R WCI   1
G MARAIS ARPRT PTSUNNY    5 -11  47 CALM      30.03R
$$
MNZ029>031-032-039>041-046>048-054>057-064-251800-
   West Central Minnesota

CITY           SKY/WX    TMP DP  RH WIND       PRES   REMARKS
FERGUS FALLS   MOSUNNY   23  19  86 NW6       30.06R WCI  16
WHEATON        MOSUNNY   21  18  86 NW9       30.07R WCI  11
MORRIS         CLOUDY    25  21  86 NW7       30.02R WCI  17
ALEXANDRIA     CLOUDY    24  19  81 SE9       30.01R WCI  14
ELBOW LAKE     CLOUDY    24  21  86 CALM      30.01R
WADENA         CLOUDY    25  18  74 SE6       30.00R WCI  18
GLENWOOD       CLOUDY    25  19  80 NE9       30.02R WCI  15
APPLETON       CLOUDY    27  25  93 N9        30.03S WCI  17
BENSON         CLOUDY    28  23  80 E3        30.03R
ORTONVILLE     PTSUNNY   25  19  80 N12       30.03R WCI  14
MADISON        CLOUDY    30  28  93 N10       30.03R WCI  21
WILLMAR        PTSUNNY   27  21  80 E6        30.03R WCI  20
$$
MNZ033>034-036-042>043-049>051-058-059-251800-
   Central Minnesota

CITY           SKY/WX    TMP DP  RH WIND       PRES   REMARKS
ST CLOUD       CLOUDY    22  13  68 E7        30.03R WCI  13
SAUK CENTRE    CLOUDY    23  17  77 E7        30.03R WCI  15
PAYNESVILLE    MOSUNNY   20  15  81 N7        30.03R WCI  11
AITKIN         CLOUDY    25  16  68 E5        30.01F WCI  19
PINE RIVER     CLOUDY    21  16  79 SE5       30.05R WCI  15
BRAINERD       CLOUDY    22  13  68 VRB5      30.03R WCI  16
STAPLES        CLOUDY    21  14  73 SE3       30.01R
LONG PRAIRIE   CLOUDY    23  18  80 E6        30.02R WCI  16
LITTLE FALLS   MOSUNNY   23  14  68 SE5       30.04R WCI  17
LITCHFIELD     PTSUNNY   25  19  80 NE8       30.03S WCI  16
BUFFALO        CLOUDY    21  14  73 NE13      30.05R WCI   9
MAPLE LAKE     CLOUDY    23  16  76 NE8       30.05R WCI  14
$$
MNZ037-044-045-052-053-251800-
   East Central Minnesota

CITY           SKY/WX    TMP DP  RH WIND       PRES   REMARKS
PRINCETON      CLOUDY    23  16  74 NE8       30.04R WCI  14
MORA           CLOUDY    21  12  68 N3        30.06R
CAMBRIDGE      CLOUDY    25  12  58 NE3       30.03R
RUSH CITY      CLOUDY    23  14  70 NE6       30.05R WCI  15
MOOSE LAKE     FLURRIES  23  14  68 E3        30.03R
HINCKLEY       CLOUDY    23  16  74 E6        30.05R WCI  16
CLOQUET        LGT SNOW  19  14  79 E6        30.03R WCI  11
MCGREGOR       CLOUDY    23  18  80 E6        30.03S WCI  16
$$
MNZ071>073-080-081-089-090-097-098-251800-
   Southwest Minnesota

CITY           SKY/WX    TMP DP  RH WIND       PRES   REMARKS
MONTEVIDEO     CLOUDY    30  27  86 E6        30.04R WCI  24
GRANITE FALLS  CLOUDY    31  28  88 N5        30.03R WCI  26
CANBY          CLOUDY    28  27  94 CALM      30.03R FOG
MARSHALL       CLOUDY    30  27  86 CALM      30.02R
REDWOOD FALLS  PTSUNNY   30  22  72 NE8       30.01R WCI  22
OLIVIA         PTSUNNY   28  25  86 NE8       30.01S WCI  20
PIPESTONE      CLOUDY    30  30 100 NE8       29.97R FOG     WCI  23
WINDOM         CLOUDY    27  25  93 N8        29.98R WCI  18
WORTHINGTON    CLOUDY    28  25  86 N10       29.98R WCI  19
JACKSON        CLOUDY    30  27  86 N6        29.98R WCI  24
TRACY          CLOUDY    31  28  90 NE5       30.00R WCI  26
SLAYTON        CLOUDY    29  27  90 CALM      29.99R
$$
MNZ065>067-074>077-082>085-091>093-251800-
   South Central Minnesota

CITY           SKY/WX    TMP DP  RH WIND       PRES   REMARKS
MANKATO        CLOUDY    25  18  74 N14       30.01R WCI  13
NEW ULM        SUNNY     25  18  74 NE12      30.02R WCI  14
ST JAMES       SUNNY     28  25  86 N13       30.01R WCI  18
FAIRMONT       CLOUDY    28  23  80 N12       29.97R WCI  18
GLENCOE        CLOUDY    24  19  83 N8        30.03R WCI  15
FARIBAULT      CLOUDY    21  16  79 N9        30.01R WCI  11
OWATONNA       CLOUDY    25  18  74 N9        29.98R WCI  15
WASECA         CLOUDY    27  21  80 N14       30.00R WCI  15
ALBERT LEA     CLOUDY    28  27  93 N8        29.96R WCI  20
$$
MNZ078>079-086>088-094>096-251800-
   Southeast Minnesota

CITY           SKY/WX    TMP DP  RH WIND       PRES   REMARKS
ROCHESTER      CLOUDY    26  20  77 NE13      29.95R WCI  15
RED WING       CLOUDY    25  12  58 NE7       30.02R WCI  17
STANTON        CLOUDY    23  17  76 N10       30.00R WCI  12
DODGE CENTER   CLOUDY    25  21  86 N13       29.96R WCI  13
WINONA         CLOUDY    30  21  69 NE6       30.00R WCI  24
AUSTIN         CLOUDY    27  23  86 NE9G16    29.95R WCI  17
PRESTON        CLOUDY    26  23  87 E9        29.94R WCI  17
$$
ABBREVIATIONS USED IN REMARKS
   TC - TEMPERATURES IN CELSIUS
  WCI - WIND CHILL INDEX
   HX - HEAT INDEX
  VSB - VISIBILITY
$$


USA.gov is the U.S. government's official web portal to all federal, state and local government web resources and services.